Location: Conjunto Santa Maria
(19.9513°S, 43.9599°W)
Time: 13:01:25
(UTC+00:00)

Meteor 2-1 Rocket - Pass Details

Date: 21 January 2021
Orbit: 827 x 910 km, 81.3° (Epoch: 04 March)

Event Time Altitude Azimuth Distance (km) Brightness Sun altitude
Rises 22:16:58 0° 352° (N) 3,349 7.1 -8.6°
Reaches altitude 10° 22:19:21 10° 351° (N) 2,426 6.4 -9.1°
Maximum altitude 22:24:50 80° 265° (W) 855 4.3 -10.3°
Drops below altitude 10° 22:30:28 10° 177° (S) 2,487 6.9 -11.5°
Sets 22:32:55 0° 175° (S) 3,440 7.7 -12.0°
